GFSMW_925_spd_000.txt.gz
Wind_Speed
6 8 9 11 10 9 9 11 12 12 12 12 11 12 12 14 13 14 12 9 10 8 6 4 2 3 4 7 8 9 10 15 16 19 17 15 24 22 27 25 25 31 30
5 7 4 8 9 11 13 14 15 15 15 15 15 17 16 17 20 17 18 15 12 11 9 9 5 5 4 8 11 10 10 12 16 15 18 6 16 19 17 17 18 14 21
6 5 0 4 7 12 14 15 17 18 19 20 19 19 19 17 13 15 12 16 19 17 14 13 10 8 6 8 10 13 16 18 14 16 15 6 5 10 24 22 26 18 21
4 4 0 3 6 14 15 16 18 20 21 20 22 23 19 18 22 24 24 29 26 21 17 13 12 10 8 10 12 12 13 17 18 18 18 23 24 9 11 17 22 25 26
5 6 7 7 5 6 12 16 18 21 23 23 24 26 25 22 21 16 14 11 10 8 7 8 11 12 9 10 12 16 18 19 19 20 19 20 24 23 11 12 11 19 20
7 5 10 8 11 7 7 12 18 23 25 26 27 26 28 24 15 18 7 5 4 4 1 1 3 5 8 10 13 16 18 20 23 24 24 22 17 15 13 10 11 10 19
4 5 7 11 10 12 15 13 19 23 25 25 27 30 26 25 23 19 11 9 6 2 3 8 10 11 13 16 20 21 23 23 25 26 26 27 27 26 25 24 18 11 25
3 6 6 8 10 13 17 18 22 25 24 27 30 29 30 24 20 17 10 6 2 4 7 6 10 12 14 19 21 23 24 24 25 27 27 27 26 26 25 24 19 12 14
5 7 7 11 11 13 16 23 28 26 25 26 28 25 22 19 11 7 7 3 2 4 3 6 10 16 18 20 22 24 24 24 26 27 28 29 27 27 28 29 30 23 15
10 6 6 12 17 23 21 26 24 21 21 21 12 6 6 7 6 5 3 3 3 8 10 11 15 19 21 23 24 25 24 25 27 27 27 28 27 29 28 28 29 27 25
6 5 4 9 15 19 23 27 26 18 16 14 10 5 6 6 7 6 5 2 7 12 17 19 18 21 23 25 25 26 27 28 29 30 31 32 32 32 31 30 30 30 29
9 11 13 14 16 16 25 31 25 17 11 10 3 5 6 7 7 7 2 5 11 19 17 20 22 24 26 26 27 28 28 28 29 30 29 30 29 30 29 28 29 30 31
12 15 17 13 16 23 31 32 24 16 7 4 5 6 6 7 7 6 8 12 17 16 20 22 24 26 26 27 28 29 29 30 30 29 29 29 30 31 31 32 31 30 29
17 16 12 14 18 24 29 24 24 17 5 6 8 10 10 10 8 8 8 15 17 19 21 24 26 27 28 27 27 27 29 29 28 26 26 26 26 25 26 28 29 27 26
17 17 17 16 22 25 27 20 26 13 6 8 9 6 5 9 12 9 13 15 18 22 24 25 27 26 25 25 25 23 22 22 25 26 27 29 31 32 32 30 31 29 28
16 19 18 19 25 22 21 19 22 11 4 4 5 10 11 10 8 12 13 19 22 22 24 25 25 26 24 23 26 27 22 21 24 26 28 32 34 35 37 37 39 38 34
18 16 13 19 24 21 14 16 17 12 8 8 5 8 11 12 11 11 17 19 22 22 23 24 24 24 25 23 24 25 24 23 26 29 30 31 31 32 33 34 36 38 40
19 19 19 22 19 15 13 15 11 9 2 3 11 14 9 7 10 15 18 20 21 22 23 23 23 23 22 26 30 34 32 28 29 31 31 32 33 34 34 34 33 32 31
16 22 23 18 13 12 12 12 8 7 9 15 5 3 4 9 13 17 17 19 21 22 22 20 21 24 27 29 32 32 30 30 32 34 33 33 34 35 35 35 33 33 34
22 19 14 14 16 15 11 7 7 10 6 3 3 5 9 12 16 15 18 20 20 22 21 25 21 21 27 30 31 31 30 30 25 25 24 27 30 38 37 35 32 29 29
18 15 14 16 14 9 5 9 10 8 9 8 6 8 12 15 16 17 19 19 22 22 24 17 20 25 26 28 29 29 30 27 30 27 28 26 27 27 30 35 35 33 31
15 14 13 10 7 6 7 9 12 11 7 7 9 11 13 15 16 18 20 20 22 20 17 21 23 23 26 25 28 29 29 33 33 31 28 26 27 28 26 25 26 27 28
12 11 10 6 8 9 8 9 9 8 9 10 11 13 14 16 15 19 19 20 17 18 19 18 22 24 24 25 27 28 32 28 28 28 26 26 26 25 28 30 33 36 31
11 9 8 8 8 5 5 6 5 8 10 11 12 13 15 15 16 18 17 16 17 16 16 21 21 23 23 25 27 31 28 25 26 24 25 24 25 24 23 25 30 31 29
7 6 7 8 9 5 4 4 6 8 10 11 12 13 13 15 17 16 15 16 14 19 21 21 21 21 22 25 33 29 26 23 24 20 18 16 14 14 17 24 9 5 7
7 7 9 7 4 4 3 4 6 7 10 10 11 13 14 15 15 16 16 16 19 21 22 18 19 23 22 26 26 27 23 19 19 17 14 15 17 15 16 20 15 5 8

GFSMW_925_spd_003.txt.gz
Wind_Speed
10 19 17 18 13 9 5 5 6 8 11 14 12 14 13 15 16 18 15 20 16 13 12 10 9 9 6 3 2 6 9 12 12 18 17 22 22 19 27 18 19 14 19
8 11 11 9 8 7 4 6 11 14 16 19 20 20 19 21 23 23 20 22 18 17 16 13 14 10 8 6 6 6 6 8 11 12 13 4 16 19 20 31 27 26 22
6 5 6 6 9 9 11 13 15 16 19 24 25 22 23 25 20 14 21 24 23 23 22 17 13 12 8 5 5 7 11 15 9 11 8 5 4 11 21 23 26 25 27
6 5 5 7 9 14 16 15 15 16 17 19 28 28 28 25 31 30 24 21 26 27 23 20 17 10 5 1 1 3 9 14 16 18 17 19 21 6 11 16 22 26 26
6 6 2 1 4 5 11 18 19 19 18 20 23 29 32 33 25 22 24 15 14 24 23 16 9 6 3 3 3 6 11 15 18 19 21 21 23 22 9 11 13 22 25
5 6 7 7 5 4 7 11 16 19 22 24 26 30 31 36 32 22 18 12 11 12 12 13 9 9 5 5 11 16 19 22 28 29 26 23 14 14 13 9 11 11 20
4 2 3 4 6 11 13 15 15 18 24 28 31 34 37 38 38 35 25 19 17 14 9 1 6 9 9 10 17 20 28 29 28 30 29 28 28 26 24 23 16 12 25
4 3 2 4 12 14 18 20 24 26 26 27 18 18 28 39 40 37 22 20 19 13 8 9 5 8 12 15 23 28 30 29 31 30 29 29 28 26 24 20 17 13 14
2 3 5 11 12 16 16 19 23 28 28 19 17 18 16 15 14 13 18 16 14 14 9 8 8 12 17 20 24 25 30 30 31 31 30 30 30 30 30 28 25 17 13
6 6 8 7 13 16 17 21 27 29 25 10 9 3 6 11 14 14 17 15 11 6 5 7 15 22 19 20 25 29 30 30 30 30 30 28 29 29 27 27 26 25 19
7 7 7 10 13 16 20 25 32 29 23 9 5 3 6 8 10 12 10 5 2 3 5 12 14 16 22 26 28 30 31 30 31 31 32 32 30 29 27 28 30 28 26
5 8 14 17 19 19 25 27 31 23 20 9 6 7 10 11 12 13 10 8 6 5 8 11 16 22 23 25 27 29 30 32 32 31 28 28 28 28 29 28 28 26 26
10 8 10 15 18 19 24 24 28 24 23 9 8 10 11 11 13 5 2 4 5 10 12 19 20 22 25 27 30 31 32 32 31 31 29 30 27 25 23 20 18 18 19
6 7 10 15 15 19 24 23 18 24 27 12 12 12 12 11 7 6 3 6 9 14 16 19 24 25 27 30 29 28 30 30 26 22 18 19 21 22 24 26 26 24 21
6 9 12 10 17 22 23 12 19 24 23 13 10 11 9 4 3 3 1 9 14 18 20 21 22 27 23 24 23 19 18 18 20 23 24 27 29 29 30 30 32 30 29
9 13 12 16 18 21 9 15 17 20 11 5 8 7 7 3 4 5 12 16 15 17 18 21 20 22 24 20 16 16 21 24 25 26 26 28 31 34 35 35 35 34 31
13 12 11 15 18 10 10 17 19 17 8 1 2 8 9 4 10 15 9 13 15 17 18 21 23 25 17 15 21 29 30 28 27 28 28 28 27 28 30 32 33 34 34
11 7 14 17 9 12 18 21 19 7 5 8 8 1 6 10 3 7 11 14 13 18 23 24 21 16 23 26 29 29 28 29 31 30 32 32 33 34 32 32 31 32 32
8 16 16 9 13 21 19 16 13 10 8 8 5 7 7 7 9 11 10 14 19 22 21 16 24 21 22 29 28 27 28 28 31 34 33 34 34 32 33 32 30 32 33
17 10 7 11 15 14 10 12 15 3 13 13 14 12 12 12 10 11 14 17 16 20 21 24 12 21 26 28 27 26 25 22 25 27 27 30 34 34 34 34 31 28 31
11 12 14 11 7 8 11 10 15 17 13 11 10 10 10 11 12 15 14 18 18 21 14 18 24 23 25 28 25 25 26 26 28 27 28 27 29 32 34 32 31 29 28
12 15 13 9 8 8 8 16 15 9 10 10 9 9 12 14 14 13 17 18 18 13 17 21 23 25 24 23 24 25 27 28 30 30 29 30 29 25 27 30 31 34 28
11 10 8 10 8 4 6 9 5 7 11 12 12 14 15 14 11 14 18 17 13 15 20 18 19 21 22 23 25 26 29 29 28 25 27 27 25 23 23 22 24 29 29
12 8 5 5 5 3 4 5 4 10 12 13 14 14 11 14 15 15 15 11 16 18 18 17 18 20 19 22 25 28 27 25 21 23 18 19 17 15 14 16 20 19 24
10 9 7 9 2 6 4 5 7 10 12 13 12 12 14 14 16 14 14 16 19 17 19 19 18 18 19 23 28 24 25 18 18 18 18 19 19 18 18 19 20 10 10
10 10 9 7 6 4 3 4 8 11 12 12 13 12 13 14 15 15 17 17 16 16 18 17 15 22 20 24 20 21 16 19 15 15 15 15 15 15 16 18 19 21 11

GFSMW_925_spd_006.txt.gz
Wind_Speed
1 16 23 25 22 16 10 5 5 7 9 11 14 15 19 19 21 20 19 24 22 20 17 18 15 16 14 15 13 9 8 9 9 11 15 16 18 11 23 13 25 24 22
7 13 16 13 11 11 9 7 6 8 12 15 19 20 23 24 24 25 24 26 28 28 25 23 21 19 18 17 14 10 7 7 7 5 6 4 15 17 16 26 19 23 22
8 6 8 11 10 10 8 9 9 11 14 19 21 24 25 25 27 29 28 31 31 32 31 30 26 23 21 21 17 12 9 4 2 6 2 3 3 15 18 24 23 18 23
4 2 5 8 12 12 12 13 13 15 17 20 24 29 33 28 36 38 36 32 26 35 34 32 28 23 21 15 11 8 4 2 2 10 7 16 15 5 11 16 22 25 24
5 4 3 2 8 9 11 14 15 18 18 21 23 26 30 39 42 40 36 35 32 32 36 32 29 22 20 16 9 1 4 9 11 15 19 24 24 21 8 12 16 25 22
4 5 6 6 5 4 2 6 10 13 16 19 23 28 32 38 37 39 41 36 30 25 29 28 22 18 15 13 8 6 8 14 18 22 26 25 13 14 11 8 13 15 24
6 4 5 6 10 10 12 13 14 17 21 24 27 31 34 30 33 36 33 28 22 18 19 20 14 13 10 9 9 12 17 28 27 25 24 28 27 26 23 17 15 9 20
4 1 7 11 12 12 13 14 15 23 27 27 29 30 24 22 22 23 25 21 20 20 18 17 10 6 10 12 17 24 26 23 22 25 28 30 30 31 29 21 16 11 12
7 8 8 10 12 15 17 22 26 31 31 26 23 20 23 23 18 12 6 16 26 23 17 11 7 10 16 28 21 17 19 23 27 28 30 31 31 29 30 29 26 16 11
8 7 8 10 8 12 17 23 29 29 25 23 18 17 14 7 5 10 22 22 18 11 1 8 17 13 6 9 14 19 24 26 28 29 29 30 31 31 32 32 30 26 19
5 5 8 12 18 16 13 19 21 20 20 22 15 13 9 9 16 19 16 12 7 1 8 3 4 8 11 15 20 21 23 24 24 26 29 30 30 30 27 27 28 28 23
4 4 5 11 16 17 15 26 21 18 22 29 19 16 12 14 17 15 13 9 8 7 4 3 8 13 16 17 20 22 25 28 30 30 30 31 28 28 27 25 25 24 23
2 3 6 13 18 24 23 23 16 15 21 25 20 16 15 17 17 13 9 7 2 4 6 9 14 17 20 24 24 26 27 27 28 29 28 25 21 21 20 16 18 20 21
4 6 7 12 16 21 21 22 12 18 21 23 16 14 11 13 9 9 6 1 4 6 9 14 17 18 20 22 22 21 21 19 17 17 19 22 23 24 25 25 24 21 21
7 7 7 8 15 19 22 12 16 21 25 18 9 8 9 6 4 2 3 16 12 12 12 14 14 16 16 19 17 16 14 17 23 27 29 30 29 26 26 25 26 25 26
8 11 9 12 15 18 15 15 22 22 19 13 5 6 4 3 1 11 11 14 15 10 9 11 14 18 19 17 11 16 23 28 30 29 27 29 30 32 33 32 30 29 27
12 12 10 15 16 11 13 19 18 14 6 2 4 6 8 8 9 9 11 12 7 8 13 17 18 17 14 15 20 21 26 27 27 28 28 28 26 27 29 31 31 31 32
14 13 15 16 13 14 19 15 9 8 9 9 8 8 6 8 9 7 6 9 12 15 17 16 16 16 18 16 23 25 26 27 28 29 29 28 30 31 29 28 28 27 30
17 15 13 12 14 16 13 10 14 13 11 17 15 14 17 16 9 10 12 14 15 16 18 16 15 13 20 24 24 24 25 27 28 27 26 26 28 30 30 30 28 31 30
7 9 14 15 13 10 9 12 16 15 14 11 8 7 7 8 10 12 12 13 16 16 16 10 16 22 26 24 21 21 23 23 25 26 27 27 30 32 33 32 30 28 29
8 13 14 13 8 8 9 9 10 10 12 11 9 9 11 13 13 11 14 15 17 11 14 18 22 23 21 23 22 21 23 24 26 26 27 27 29 29 31 29 27 28 30
14 16 10 5 7 5 5 5 5 9 6 9 10 12 13 13 10 13 15 15 10 13 18 21 23 24 24 23 22 22 23 26 28 27 26 27 26 25 22 24 28 27 29
16 11 7 7 5 4 7 5 2 5 9 11 12 13 12 11 13 13 14 8 13 15 18 20 22 23 23 25 24 23 25 26 25 20 21 20 20 19 16 15 15 18 20
10 10 12 9 7 6 3 2 2 7 10 13 13 12 13 12 12 12 10 10 16 15 18 20 18 18 21 22 25 27 22 24 14 18 20 17 19 16 15 17 15 14 16
10 10 8 10 13 4 4 3 5 7 12 12 14 12 9 10 12 13 9 14 15 13 18 20 15 17 20 22 24 21 22 17 12 13 20 20 21 20 20 20 20 20 17
8 13 12 7 5 8 6 6 7 8 12 14 14 11 11 13 13 13 14 12 10 13 14 13 14 22 18 20 20 19 14 14 14 15 12 16 17 17 17 19 20 20 21

GFSMW_925_spd_009.txt.gz
Wind_Speed
3 8 9 14 19 18 15 13 10 9 10 8 10 13 17 19 21 21 23 25 27 27 26 25 24 23 24 23 22 20 17 15 11 10 10 8 13 5 9 13 22 17 24
5 8 15 16 15 14 12 12 10 9 9 9 10 14 17 22 24 25 27 29 30 30 33 33 31 30 30 28 26 26 21 18 13 6 2 3 4 5 15 13 15 21 17
8 6 9 10 9 12 14 12 11 11 12 14 15 20 23 25 28 32 33 36 35 35 39 40 39 36 35 36 34 31 26 19 11 7 5 1 3 6 8 17 13 14 24
4 4 7 9 10 11 8 12 14 14 15 15 17 21 26 26 35 36 37 40 39 38 41 44 46 43 36 33 31 26 22 15 11 4 8 2 4 3 4 6 12 18 19
4 5 7 6 6 8 8 10 11 12 12 15 18 22 25 28 32 34 37 38 38 39 39 40 44 40 28 22 17 14 10 7 7 3 2 9 7 8 5 6 10 20 18
6 2 5 4 9 9 11 12 9 10 14 19 22 27 31 35 32 31 31 33 33 31 31 35 28 23 17 17 9 5 5 6 9 8 10 10 5 9 6 3 8 12 18
4 3 1 7 10 11 9 8 11 18 24 29 29 29 30 30 27 27 28 28 27 22 14 16 21 22 18 11 6 13 15 18 21 23 22 25 20 21 18 16 12 7 17
5 5 8 8 7 6 10 14 19 25 28 27 26 25 26 28 29 29 24 21 12 12 20 23 16 12 8 14 17 17 17 17 14 13 17 20 22 21 20 16 10 9 8
6 5 5 7 9 15 16 17 22 27 25 22 25 27 29 29 30 29 19 9 9 20 19 12 9 12 15 23 21 13 9 14 18 18 19 19 21 21 21 23 20 12 10
5 4 4 8 17 18 20 19 24 23 20 21 23 28 29 27 23 16 9 12 19 13 6 3 14 18 12 7 10 13 15 16 17 18 19 20 23 24 23 23 23 21 18
1 4 6 13 20 20 21 18 20 19 16 17 24 27 30 20 11 11 13 16 9 2 5 8 3 4 8 11 14 14 15 17 20 22 23 24 24 25 25 24 24 24 20
4 5 11 17 19 22 21 21 19 17 17 23 27 30 31 18 14 14 12 10 5 2 2 3 3 6 10 13 14 17 18 20 22 22 22 24 25 25 25 25 24 25 25
8 7 10 13 17 21 24 21 24 17 21 28 33 31 28 15 14 11 9 4 1 2 5 8 10 12 12 14 15 16 18 18 19 19 19 18 17 19 19 18 19 21 23
10 7 8 14 19 21 20 20 16 16 25 27 26 25 16 10 10 4 3 6 10 12 13 13 13 13 13 14 15 18 18 16 14 16 20 22 24 27 28 28 27 26 25
9 7 11 12 18 19 21 20 15 22 23 23 19 13 4 3 4 5 9 12 16 13 18 14 12 12 16 18 17 15 12 16 21 26 30 30 30 26 27 26 26 25 24
8 8 9 14 16 19 23 18 21 20 15 11 5 4 5 6 9 11 12 13 19 16 10 12 16 17 15 12 9 15 19 23 27 28 28 28 27 28 27 26 27 28 26
7 12 11 15 21 22 15 20 21 13 8 6 6 9 9 7 10 13 11 8 8 10 13 13 14 14 14 16 15 19 24 26 28 26 26 26 24 24 27 28 27 28 28
12 14 17 17 18 19 22 18 14 12 5 12 13 12 11 11 12 12 10 9 10 11 13 14 14 14 15 18 23 25 25 26 26 27 26 26 29 27 26 26 27 27 27
15 19 16 18 20 18 11 9 16 13 11 12 14 18 17 13 10 9 12 10 13 13 14 10 12 17 23 25 23 21 23 26 27 27 25 25 27 30 28 30 28 28 28
15 14 19 22 20 9 1 4 3 1 3 8 10 7 9 10 11 11 11 12 14 13 8 14 19 22 24 23 22 21 23 21 21 21 23 26 27 28 28 30 29 27 27
10 16 22 16 10 6 3 3 5 3 5 6 7 10 11 11 10 11 13 14 12 10 16 19 21 22 22 23 24 21 21 22 24 24 26 26 26 26 28 26 27 26 29
18 22 15 12 11 8 7 8 3 4 7 10 11 11 11 10 12 12 13 12 11 16 18 20 25 26 23 23 26 21 21 23 25 26 22 24 24 23 23 22 21 22 20
17 14 11 14 11 9 9 6 3 6 10 11 12 12 11 11 11 12 14 11 15 17 18 20 21 23 23 28 26 25 23 23 26 19 17 19 19 19 18 17 18 17 16
12 11 11 11 9 6 8 5 5 6 8 11 13 14 12 12 10 15 14 12 16 19 17 20 20 18 24 25 27 23 25 25 16 16 15 19 18 16 16 19 17 15 14
10 9 10 9 11 13 11 7 5 6 8 10 12 12 11 11 14 14 14 15 15 14 18 20 18 20 21 23 24 23 23 17 14 13 13 19 21 19 20 21 21 20 20
10 12 14 13 15 14 10 8 8 8 8 11 13 13 15 15 13 15 16 11 14 14 15 16 16 21 20 22 21 21 17 14 10 12 13 16 17 16 17 18 20 20 22

GFSMW_925_spd_012.txt.gz
Wind_Speed
4 5 7 8 11 13 16 15 13 11 10 9 11 12 15 15 17 17 21 24 27 29 30 31 31 29 29 30 28 26 24 23 19 13 13 15 15 16 12 6 4 7 10
3 8 12 12 15 17 16 14 12 11 11 13 11 11 14 18 23 26 28 29 30 34 36 37 38 37 35 35 33 31 29 27 22 9 3 2 5 14 14 8 4 9 4
6 2 6 10 11 12 12 10 10 11 11 12 15 17 20 22 26 30 30 31 35 36 35 39 45 45 42 41 40 38 36 29 24 23 8 1 5 1 6 7 9 5 13
3 4 7 6 8 6 7 9 10 8 7 9 13 15 19 23 29 29 31 30 28 31 31 31 35 44 46 43 42 38 33 25 16 13 14 5 2 3 3 3 3 12 6
6 4 4 3 5 3 6 10 12 12 14 18 21 22 24 25 27 29 28 28 29 27 28 28 27 33 36 35 29 19 15 13 9 2 0 5 3 6 3 3 3 15 9
6 7 6 9 13 14 15 16 17 20 22 23 23 22 22 25 28 30 30 32 31 28 26 24 20 17 12 9 14 17 14 10 8 6 8 5 4 3 3 2 6 8 19
7 5 8 13 15 18 18 18 19 22 24 21 18 19 21 26 31 33 34 34 30 24 19 12 5 15 18 15 13 14 14 10 9 8 8 8 10 10 12 13 11 6 12
6 7 10 10 13 17 19 19 18 23 24 20 20 20 23 27 30 32 34 32 20 10 4 15 16 12 10 9 13 13 11 5 6 7 8 12 15 15 14 15 9 8 7
6 6 6 8 14 19 19 19 17 19 21 19 20 23 28 32 33 35 31 24 9 12 15 10 5 5 3 9 16 10 7 5 4 8 9 12 13 14 14 15 18 13 7
7 6 7 9 13 15 17 17 19 19 21 19 20 26 31 35 33 32 25 13 11 12 6 2 7 9 6 11 7 9 9 9 9 9 10 12 15 16 15 16 19 21 17
6 7 12 13 14 15 17 19 21 21 24 19 23 30 35 33 32 21 13 12 10 2 2 7 11 9 10 8 9 10 9 12 13 14 17 19 18 19 19 19 20 21 21
8 9 17 19 18 24 24 22 22 23 21 19 28 32 30 29 20 6 6 4 1 5 8 9 12 15 14 13 13 13 14 15 17 18 19 20 20 20 19 18 19 21 22
9 8 12 15 21 28 27 23 22 23 17 24 26 26 25 21 11 2 4 4 6 7 9 11 17 16 14 13 12 13 13 16 19 18 17 17 16 19 21 23 25 25 25
8 8 8 13 23 26 27 23 22 17 21 22 19 18 17 10 5 6 8 11 10 13 13 18 18 13 12 13 15 16 17 17 16 17 19 23 25 27 27 25 25 23 22
8 8 7 13 17 19 21 21 17 22 22 15 12 10 8 8 8 11 11 14 18 20 20 20 17 15 16 17 16 15 14 17 22 26 28 29 28 24 25 25 23 21 20
8 8 8 13 14 18 20 21 24 22 15 10 8 10 12 13 11 12 13 12 15 16 14 13 15 17 16 13 14 16 18 22 26 25 26 26 26 26 23 22 23 23 22
6 8 9 16 18 23 24 23 19 15 10 11 16 14 15 15 13 14 14 11 11 11 14 16 17 16 14 15 17 20 23 25 24 25 26 25 22 23 25 24 23 23 24
10 10 13 17 23 27 25 14 6 11 10 8 7 9 12 13 11 10 10 11 11 14 16 16 14 15 20 23 24 22 23 23 24 25 26 25 26 24 22 25 25 25 26
16 20 17 22 26 25 7 3 4 3 1 9 13 11 10 11 13 14 13 12 13 15 14 11 16 20 24 24 22 20 24 26 25 23 21 22 22 24 24 26 26 25 26
16 15 20 26 22 14 9 11 10 8 7 11 10 10 12 12 13 12 12 13 14 11 12 18 19 20 24 23 22 22 25 23 21 23 21 23 23 24 24 26 25 24 22
15 16 19 17 16 14 13 13 8 5 8 11 11 12 13 12 11 13 13 14 12 13 18 19 20 23 24 23 24 23 22 22 23 21 23 24 18 22 23 22 24 23 25
14 17 16 15 16 15 11 10 8 10 13 10 11 12 13 13 12 11 13 15 12 18 20 22 25 26 25 24 26 22 22 21 24 23 23 16 19 21 20 19 18 20 20
15 15 13 15 18 12 8 10 15 13 9 8 10 12 13 11 11 11 15 16 15 19 22 20 20 23 22 29 28 26 21 25 25 21 18 13 19 20 18 17 18 15 14
15 14 13 16 15 13 12 15 12 8 8 8 9 11 11 12 12 14 14 16 18 20 18 20 20 20 23 24 28 23 26 25 17 16 13 15 18 19 18 20 19 18 16
18 16 14 15 17 19 17 16 13 11 11 9 9 10 12 14 16 15 14 16 14 16 17 20 21 21 19 24 26 24 25 20 16 10 14 18 20 20 20 20 21 22 22
20 15 14 17 21 17 18 16 12 12 13 12 10 11 13 15 13 15 18 16 14 16 16 16 17 20 21 23 22 22 20 15 12 12 13 14 16 17 17 18 20 22 23

GFSMW_925_spd_015.txt.gz
Wind_Speed
4 2 1 4 8 10 13 14 14 11 10 8 8 8 8 12 15 18 22 23 24 24 26 28 30 30 30 33 32 28 24 21 21 12 17 18 18 18 16 15 12 9 5
3 3 3 4 6 6 6 6 3 4 6 9 10 12 16 15 18 20 23 24 26 28 27 25 26 27 25 28 34 30 24 20 20 17 16 7 12 14 17 16 13 10 8
5 3 5 6 9 7 5 5 6 7 8 8 10 11 11 13 14 18 23 25 22 21 24 24 24 25 24 26 29 29 29 28 21 24 16 6 10 7 9 17 14 11 9
7 10 10 11 9 8 8 9 13 14 13 12 12 13 11 12 14 17 20 26 26 27 27 27 26 25 22 23 23 23 25 24 26 15 20 12 8 9 9 10 12 11 8
7 9 11 11 14 16 17 14 13 15 15 16 16 14 12 11 17 22 26 28 27 28 27 25 25 23 19 17 15 15 13 15 22 18 11 10 7 4 8 10 9 8 9
7 7 9 11 12 13 13 13 14 14 17 17 15 14 14 19 21 25 29 31 29 29 28 22 17 13 6 4 9 10 10 7 6 4 4 2 5 4 3 2 5 11 17
8 8 10 9 9 12 13 14 16 16 19 18 19 20 21 23 24 28 29 29 28 21 18 11 4 6 12 12 10 9 8 10 9 9 7 5 3 2 2 4 6 7 15
6 6 3 1 5 9 13 16 16 16 19 21 20 19 20 24 28 26 28 26 23 16 6 3 6 7 5 5 6 8 9 8 9 9 8 6 5 5 7 7 6 8 13
4 2 3 6 8 13 16 18 20 19 17 19 18 18 21 26 26 28 28 25 19 6 5 5 1 1 5 7 10 7 3 1 3 6 7 8 8 12 13 15 12 12 11
6 7 11 13 12 13 16 18 15 15 15 17 14 17 22 23 25 27 24 15 5 6 4 5 4 6 7 8 5 4 3 4 6 8 11 12 13 15 15 18 14 15 19
7 9 13 16 15 14 15 16 15 15 15 15 16 22 24 24 24 19 13 5 4 2 2 3 7 10 11 13 12 8 6 6 8 9 10 12 13 14 14 14 15 19 19
9 11 14 14 13 12 17 18 16 15 17 15 20 19 17 18 16 8 4 2 3 3 4 6 12 12 14 12 13 11 9 9 11 12 13 15 15 14 13 13 16 17 18
12 11 13 14 14 18 18 18 18 16 17 19 17 14 14 15 10 7 6 6 6 6 8 10 11 12 13 15 13 12 13 13 14 14 13 12 11 14 15 18 20 22 23
11 10 10 13 13 16 16 15 16 20 18 15 9 9 9 10 6 7 8 9 11 11 13 15 16 16 11 12 12 13 13 13 13 13 15 16 17 19 20 21 22 22 22
11 9 8 11 12 14 16 16 19 17 14 8 5 6 9 8 7 8 11 12 10 12 12 10 10 11 11 9 12 14 15 17 19 20 20 20 21 22 23 23 23 23 23
5 8 10 12 12 15 16 19 17 12 9 4 4 6 7 7 8 11 13 13 13 12 11 12 13 13 11 13 15 16 18 21 22 22 22 22 21 20 20 20 21 22 24
7 9 9 12 16 17 19 20 15 10 5 3 3 6 9 12 12 12 12 13 12 12 12 12 11 11 12 17 19 19 19 19 19 20 22 22 21 20 19 19 19 21 23
7 12 13 14 15 18 17 12 6 8 7 5 8 11 11 10 12 12 12 12 11 12 13 12 10 13 15 19 20 19 18 19 20 21 21 20 20 18 18 19 21 22 23
14 14 14 12 16 15 11 8 9 6 6 7 9 9 10 11 12 12 12 11 12 12 11 11 14 15 17 20 20 17 19 20 21 19 18 19 21 20 21 22 25 25 26
15 16 13 13 13 13 12 13 14 9 5 7 10 10 11 10 10 10 11 11 11 11 11 14 14 16 17 19 17 19 19 19 19 20 19 20 20 19 19 20 23 23 24
18 15 10 12 12 13 13 12 8 6 7 12 11 11 10 9 9 10 9 11 13 10 15 16 17 15 16 17 19 19 18 18 21 21 21 18 17 15 19 19 19 20 21
20 14 13 13 13 13 11 9 10 12 10 12 11 9 9 10 10 10 11 12 12 13 15 16 16 16 16 17 21 20 19 19 22 20 18 15 12 15 16 13 14 17 16
18 14 14 15 14 13 9 11 15 12 12 11 9 8 9 9 10 11 13 13 13 13 15 17 19 20 21 19 21 22 19 21 22 17 13 11 14 13 12 12 13 12 11
18 17 16 17 15 14 14 16 17 16 11 10 8 7 7 10 11 11 11 12 14 14 15 17 19 20 21 20 23 23 22 21 14 15 8 10 11 10 11 12 12 12 12
18 18 17 17 16 16 18 16 16 11 14 11 8 6 7 9 10 9 10 11 11 11 15 17 18 20 20 22 23 22 22 16 14 9 7 9 12 13 15 14 13 13 13
20 20 18 14 15 14 15 14 11 9 10 10 7 5 7 8 8 11 13 10 10 12 11 13 13 16 17 20 19 21 17 14 10 7 9 10 11 14 15 16 15 15 16

GFSMW_925_spd_018.txt.gz
Wind_Speed
6 4 5 5 4 4 3 3 4 1 0 2 3 5 5 7 8 9 10 12 13 14 16 18 20 20 21 23 24 25 25 26 25 23 24 25 24 23 23 21 20 20 18
11 12 12 12 12 10 8 6 4 4 3 2 3 5 8 8 9 8 12 11 14 15 15 17 19 20 21 21 23 23 25 27 25 25 24 13 22 27 25 25 24 23 21
10 10 12 12 11 10 8 6 7 7 8 7 5 6 7 8 10 13 15 15 15 16 17 18 20 20 21 23 22 22 24 25 26 27 18 10 14 17 23 21 22 23 21
8 9 9 10 11 12 13 12 10 9 8 8 6 7 8 10 12 14 16 21 18 18 20 19 18 19 20 21 21 20 21 23 25 24 26 31 30 15 12 16 21 23 22
8 8 10 11 12 12 11 9 8 8 8 7 7 7 6 7 9 12 19 22 19 20 20 19 18 17 15 14 11 10 11 14 17 20 18 15 16 22 16 14 8 19 20
7 8 8 8 9 8 8 7 8 7 9 10 9 10 12 11 13 17 21 23 25 24 22 19 14 10 7 4 3 6 8 7 7 8 10 10 6 6 6 5 14 8 15
8 7 6 6 7 9 9 9 11 12 12 10 7 6 12 14 17 21 23 27 27 25 22 15 9 5 2 2 4 4 4 5 8 8 8 7 6 5 4 3 3 3 9
6 6 6 8 8 8 8 10 12 13 11 10 12 13 15 17 21 24 26 26 25 21 14 7 4 2 2 2 4 5 4 7 3 2 3 2 3 3 4 5 6 6 11
3 5 8 8 10 10 9 10 14 17 16 15 16 15 16 19 22 23 23 23 21 15 7 5 4 3 5 6 8 6 6 3 4 5 5 4 6 7 9 11 12 12 11
3 8 12 13 13 13 10 13 17 17 14 14 14 13 17 19 19 20 19 17 14 7 6 6 5 4 5 8 9 9 9 8 9 10 10 10 12 12 13 15 16 18 19
8 10 14 12 12 9 11 15 15 13 13 13 13 16 18 16 15 16 14 10 6 6 7 5 4 7 12 12 12 12 12 12 12 13 14 15 16 18 18 19 20 21 22
10 11 13 11 10 12 15 15 14 15 15 15 17 17 14 13 14 12 10 8 7 6 6 7 10 12 12 12 12 12 11 12 13 14 17 19 20 19 18 19 20 21 22
14 12 13 12 12 15 13 13 14 15 18 20 18 15 13 13 14 10 9 9 9 9 11 10 10 12 12 13 13 15 15 16 17 17 17 18 17 18 19 20 21 22 23
12 11 11 11 16 12 13 14 16 19 19 16 16 14 13 14 9 14 12 13 14 15 14 14 13 11 11 12 12 14 16 17 17 17 18 18 19 20 21 22 23 24 25
12 10 10 14 12 11 14 16 19 18 14 14 15 10 8 8 9 10 13 14 15 15 14 12 11 11 12 10 12 14 17 19 20 20 20 20 20 21 23 24 24 24 25
7 10 11 12 12 14 15 18 19 14 12 12 11 7 9 11 13 14 14 14 14 14 14 13 13 14 13 12 15 16 19 21 21 21 21 21 21 22 20 21 23 24 24
11 10 11 12 15 14 17 18 16 13 12 13 8 9 11 12 12 14 16 15 15 14 15 15 14 13 14 15 20 19 20 21 21 21 22 23 22 21 21 21 19 21 23
12 11 14 16 14 15 18 17 17 15 14 13 10 10 10 12 13 15 14 15 15 15 15 14 14 16 16 16 18 20 20 20 21 22 23 23 23 20 19 21 21 22 23
15 16 18 18 15 17 19 18 18 18 15 13 11 10 11 12 13 13 14 14 15 15 15 15 16 17 18 17 18 18 21 21 22 21 20 20 22 21 19 20 21 23 25
16 19 20 18 16 19 18 18 20 18 15 12 12 11 10 10 12 13 13 13 15 16 15 16 17 18 18 16 17 18 21 20 20 20 20 19 21 22 21 18 20 24 25
17 19 19 18 20 20 18 18 18 15 13 10 10 10 10 10 11 12 14 15 17 16 14 14 15 15 14 19 17 18 20 20 21 22 22 19 17 13 14 17 20 20 19
19 20 22 22 23 21 21 21 19 17 13 14 13 11 9 9 10 13 15 17 18 17 15 15 15 15 15 18 17 19 21 20 22 22 20 14 18 16 16 15 13 16 17
19 22 23 24 23 21 20 21 21 19 15 17 15 12 9 9 11 14 17 17 16 15 14 16 16 18 19 19 16 21 20 21 22 19 18 16 15 13 12 9 11 12 10
21 21 22 23 24 23 20 19 19 18 18 15 14 13 11 9 12 14 13 15 14 12 14 16 17 18 19 18 20 22 22 21 17 18 12 10 11 11 9 9 8 8 9
19 19 20 22 24 22 19 18 16 13 14 15 12 11 9 10 12 11 12 12 11 9 13 14 16 18 18 19 21 20 22 18 17 14 9 9 10 11 11 12 10 10 11
21 20 23 24 24 20 19 14 11 11 11 11 10 8 8 9 9 10 12 9 8 9 8 9 11 14 15 17 17 19 18 15 13 8 9 10 11 12 13 14 13 12 13

GFSMW_925_spd_021.txt.gz
Wind_Speed
13 12 6 6 8 6 5 5 5 3 3 4 5 6 6 7 10 10 8 10 10 12 15 17 19 19 19 20 22 23 23 25 25 26 25 27 28 28 27 25 25 25 24
12 12 14 15 13 11 9 7 5 4 3 3 5 5 7 9 10 9 9 12 10 13 14 16 18 22 21 22 22 23 24 24 24 23 23 13 21 26 31 32 30 29 27
11 10 13 13 12 11 9 8 7 6 7 6 5 7 9 9 11 11 18 18 19 18 17 17 17 22 23 23 21 22 23 23 25 24 22 13 13 14 24 22 29 27 25
9 9 11 11 11 10 9 8 6 5 6 8 5 6 8 12 15 17 18 19 22 21 19 20 20 20 22 22 21 21 19 20 24 24 26 25 18 7 11 28 23 23 24
8 8 10 10 10 8 7 6 5 6 6 6 6 9 13 15 17 17 17 19 21 20 22 21 21 20 19 18 15 11 10 11 12 12 15 17 18 16 5 9 14 22 16
7 7 6 5 7 6 6 6 7 8 8 10 10 11 13 14 16 17 19 19 21 23 22 22 19 18 15 11 6 6 6 7 6 7 8 6 4 6 4 2 6 9 11
6 5 5 5 4 6 7 9 11 13 12 12 12 13 14 16 17 19 20 23 24 24 24 20 17 14 7 4 4 4 5 6 9 6 5 3 2 1 1 2 3 3 5
3 3 4 5 8 9 10 10 13 15 17 16 16 16 17 18 19 20 23 24 23 23 21 16 12 7 3 2 6 5 6 7 6 5 6 6 5 5 5 6 7 8 10
3 4 7 9 11 12 13 11 14 19 20 20 18 17 17 18 20 21 22 23 23 22 18 12 8 7 5 6 7 9 12 9 10 10 11 10 10 10 10 10 11 9 9
4 7 10 13 13 15 14 14 17 18 17 16 15 16 18 20 21 21 22 22 20 18 14 11 10 5 5 9 15 16 13 13 13 13 14 13 14 13 15 15 16 15 15
8 9 13 13 14 13 14 17 20 18 18 17 17 18 20 19 18 18 19 18 17 16 15 13 9 8 10 12 12 14 13 14 16 16 17 19 19 19 20 19 21 20 21
10 10 12 12 13 14 17 18 15 14 15 17 19 20 18 17 17 19 16 17 15 15 15 12 11 13 16 14 12 13 12 15 17 18 20 22 23 23 22 22 21 22 23
13 13 15 18 16 16 17 13 14 16 19 20 20 20 18 16 16 17 16 14 15 16 17 16 15 16 14 18 16 17 16 18 20 21 22 22 22 23 22 21 22 22 23
11 10 14 19 17 15 11 13 15 18 19 18 18 18 14 14 13 12 12 14 16 18 20 19 20 19 18 18 18 13 17 19 21 22 22 23 23 23 23 22 22 22 23
15 14 15 16 15 13 13 15 16 18 18 17 16 17 10 13 12 14 15 16 18 19 19 19 19 18 18 17 9 13 19 22 24 24 25 24 22 22 24 26 25 23 23
14 13 16 16 15 16 16 16 18 18 16 16 17 15 12 14 15 15 16 18 18 18 18 18 19 19 19 14 14 15 19 23 25 25 25 25 24 24 21 19 20 22 23
11 12 14 15 16 18 16 19 18 19 19 17 18 14 13 15 15 16 17 17 18 18 19 19 18 18 19 14 16 21 21 24 24 25 25 26 26 24 25 21 16 20 22
12 14 16 18 19 21 19 21 21 22 22 23 14 14 12 14 15 15 16 17 18 18 19 19 18 19 20 16 19 19 22 23 24 25 25 26 26 25 22 21 22 23 22
14 17 19 21 23 23 22 21 24 24 25 22 20 13 14 16 14 15 15 17 17 19 19 19 18 21 22 22 18 19 23 23 24 24 23 22 25 24 22 21 22 24 23
18 20 20 23 24 26 25 25 26 26 26 22 14 15 16 15 13 14 15 16 19 19 20 16 19 19 21 18 17 18 20 22 23 22 22 23 25 26 25 20 18 19 22
21 21 22 22 26 27 28 28 28 26 25 19 16 16 15 16 13 12 16 18 20 21 12 13 17 20 16 18 20 15 16 22 24 24 23 22 12 13 16 16 18 21 20
23 23 23 24 27 28 28 30 29 29 26 22 16 12 8 11 13 14 17 18 20 19 15 16 17 17 17 19 18 13 18 22 24 25 24 21 23 19 19 17 15 16 18
25 25 25 25 26 27 27 29 29 25 23 22 19 13 11 11 14 12 17 16 17 15 14 16 18 18 19 19 18 20 23 23 25 23 20 22 13 17 15 11 15 14 14
25 25 25 25 26 27 29 25 25 23 21 18 18 14 11 11 12 14 15 15 14 12 14 17 17 20 20 20 20 24 24 24 20 21 20 15 12 14 16 10 9 8 8
25 26 25 24 25 27 27 26 21 16 17 18 16 15 11 9 9 11 13 12 10 7 12 14 15 18 19 20 23 22 24 22 20 20 13 11 12 13 13 11 10 10 11
27 26 27 27 27 27 25 21 16 13 15 15 14 13 9 9 8 10 12 9 9 11 11 9 8 12 15 20 20 20 21 16 17 14 11 12 13 13 14 14 15 13 13

GFSMW_925_spd_024.txt.gz
Wind_Speed
20 24 20 19 16 11 14 15 11 10 5 3 4 7 10 10 9 7 8 6 11 12 13 15 18 19 22 22 23 21 22 25 24 27 24 25 27 30 34 34 29 28 28
14 18 19 21 18 14 13 12 12 10 9 9 6 6 7 6 9 10 5 12 11 12 15 19 23 18 21 22 23 23 24 23 21 22 20 9 18 23 28 32 35 35 36
11 12 16 16 15 15 14 13 11 9 10 8 7 7 8 9 10 12 17 17 15 22 23 19 18 19 19 18 22 24 25 20 20 18 17 7 8 12 21 29 24 21 25
10 12 14 13 14 14 12 10 7 7 7 8 7 9 13 14 17 17 19 22 19 20 17 21 22 21 19 19 21 16 13 14 17 19 13 18 14 4 7 13 21 24 15
9 9 12 14 13 10 8 6 6 3 2 4 7 9 12 15 16 17 16 20 15 21 22 23 24 22 20 20 13 8 12 15 16 17 16 19 21 4 4 5 9 26 23
6 8 8 13 14 8 5 5 8 10 10 7 8 9 10 12 14 16 18 16 20 22 23 24 22 24 19 7 5 8 10 9 12 13 13 8 4 4 2 2 4 8 14
5 6 7 10 6 4 3 4 8 12 13 15 12 9 9 12 14 17 17 21 23 22 24 24 21 12 11 9 8 9 7 11 10 9 10 9 6 3 2 3 5 4 13
3 2 3 4 6 8 10 11 11 13 15 13 13 15 14 12 14 15 19 19 19 20 22 14 12 10 7 6 4 5 8 12 14 13 12 12 13 11 11 9 6 4 5
3 4 6 6 7 7 9 9 10 14 14 16 14 13 14 16 14 15 16 15 18 18 17 19 15 9 8 7 9 11 16 16 15 16 15 15 16 14 12 13 12 9 3
6 7 9 13 15 17 13 13 13 15 15 15 13 14 15 16 15 16 16 16 14 16 17 15 9 7 10 9 12 14 14 15 16 17 17 17 17 15 16 20 18 18 16
6 6 12 13 12 11 12 14 14 13 13 15 17 18 18 16 13 12 16 17 17 15 17 16 13 13 15 16 19 13 13 12 14 15 15 18 20 20 19 20 17 20 20
7 10 13 14 13 13 11 16 11 11 13 17 18 17 17 11 15 17 19 19 17 17 17 18 16 15 15 13 14 17 16 16 15 17 20 22 21 22 20 20 20 20 19
8 8 8 9 16 16 17 12 12 12 14 17 17 19 17 11 14 13 14 14 15 17 19 19 20 17 19 18 18 19 17 13 19 23 24 24 23 22 21 22 22 20 20
10 10 11 16 17 16 14 12 15 11 15 17 17 17 16 8 9 11 14 16 18 18 20 20 20 20 20 20 18 13 13 16 18 23 27 27 27 26 25 18 16 18 22
12 13 12 15 15 16 15 16 14 17 14 16 16 16 19 5 7 10 14 17 18 17 18 20 20 20 20 13 14 15 13 16 20 23 25 26 27 28 27 24 23 20 20
12 14 14 17 16 15 16 15 16 16 16 15 16 20 7 9 10 11 14 16 16 15 17 18 19 20 18 16 15 16 18 18 20 24 26 27 26 25 22 18 22 24 20
12 13 14 16 16 18 20 22 17 19 18 24 21 20 10 12 10 12 13 15 13 15 15 17 17 16 16 16 17 20 22 19 21 24 25 26 24 26 23 22 20 18 17
13 13 15 16 16 18 22 22 20 22 21 21 25 25 10 11 9 11 13 10 12 15 17 16 11 13 15 19 24 24 21 20 21 23 26 26 27 26 25 26 23 24 22
15 17 18 21 20 21 21 24 27 30 29 25 23 25 17 13 10 11 11 9 13 17 14 14 13 14 19 23 22 20 21 19 20 22 23 24 27 27 26 26 23 24 23
18 21 22 19 19 18 23 24 25 28 25 25 22 17 21 21 7 8 11 13 15 13 14 13 14 15 20 19 19 19 18 18 20 22 23 24 24 21 12 14 16 16 16
20 23 24 23 24 25 24 23 25 25 28 28 26 22 16 12 8 7 12 15 14 14 11 12 18 21 18 21 19 17 13 18 21 22 24 25 23 19 20 16 19 20 20
23 25 24 24 23 23 23 21 22 25 25 24 25 23 17 15 8 8 11 12 13 9 12 16 18 18 18 17 17 15 18 22 22 24 26 22 26 19 19 18 16 16 17
23 25 23 25 26 23 21 22 22 20 21 22 20 21 19 13 11 11 12 12 10 11 12 14 17 17 18 20 17 22 24 23 25 25 25 23 22 16 17 20 15 16 17
22 21 25 23 22 23 22 19 20 21 20 16 19 18 17 14 11 8 12 13 12 10 10 12 14 15 18 19 22 24 25 24 24 26 23 22 16 16 17 18 15 13 13
21 25 22 21 23 27 23 22 20 18 14 16 16 18 17 12 8 8 11 11 9 10 11 11 11 12 15 18 21 21 23 24 22 21 17 16 18 17 18 18 19 17 16
24 23 23 24 22 24 23 22 18 10 12 12 14 15 16 13 10 10 12 12 14 13 13 14 11 12 11 17 19 19 21 20 16 17 14 14 16 16 17 15 15 17 18

GFSMW_925_spd_027.txt.gz
Wind_Speed
19 29 33 32 31 28 26 22 19 16 17 15 11 9 10 8 8 7 6 9 6 6 10 13 15 19 18 18 23 25 24 27 28 31 25 22 23 24 24 26 28 28 32
15 23 28 28 25 24 23 20 16 13 13 13 12 10 11 13 10 14 14 15 18 17 15 15 17 17 17 18 18 20 25 23 14 13 17 6 14 16 17 19 20 13 14
14 13 21 22 22 21 19 16 13 12 10 10 8 8 8 11 15 21 22 19 17 15 18 20 21 20 19 17 19 16 12 10 12 18 10 4 4 17 15 19 17 14 12
12 15 19 17 15 15 14 11 7 5 7 9 8 8 8 12 15 14 16 15 14 18 21 24 25 26 24 22 17 8 10 11 14 15 18 12 9 3 8 6 21 18 20
10 10 17 15 12 10 9 8 11 7 4 3 5 6 6 8 7 10 11 14 18 23 26 28 26 25 21 17 10 9 12 13 14 14 15 17 19 6 3 8 5 18 21
9 14 17 14 11 9 8 4 6 10 14 11 8 8 7 6 8 7 10 15 19 21 22 23 20 16 13 11 11 10 8 9 11 15 14 10 5 7 4 4 4 7 10
8 7 14 13 11 5 4 5 7 7 9 8 10 10 9 9 11 12 15 16 18 22 21 16 17 17 11 9 8 9 11 14 13 15 15 14 13 12 10 10 8 4 12
5 5 9 9 9 9 8 5 6 9 9 9 11 10 12 10 10 11 15 16 16 14 12 13 13 13 10 9 12 15 16 14 17 14 13 17 17 16 21 16 9 7 3
6 7 13 17 15 14 11 8 6 6 9 11 11 12 11 12 14 13 14 11 10 13 15 15 12 10 8 7 8 11 15 16 15 15 16 16 18 20 18 18 15 9 4
7 8 14 12 10 9 8 7 6 8 10 11 13 14 15 11 8 8 12 15 18 20 14 17 20 15 14 15 17 20 18 16 16 16 16 17 17 18 18 18 17 16 12
8 6 10 11 11 10 8 12 6 7 9 12 13 13 13 10 7 9 14 16 18 14 15 16 19 16 16 15 15 17 17 17 18 16 16 18 21 22 22 20 18 16 17
6 6 9 16 16 15 14 8 7 6 8 10 9 9 10 11 12 13 13 15 11 12 14 16 17 17 16 16 14 14 15 5 6 11 18 23 25 26 26 25 22 21 19
10 11 17 17 18 17 15 7 10 6 11 10 10 11 12 13 15 8 6 6 9 12 12 13 15 17 18 18 17 12 8 11 15 20 22 23 25 29 28 29 29 23 16
9 8 10 16 18 16 13 11 7 13 20 15 13 16 17 17 15 9 8 10 8 11 10 10 14 16 18 17 11 13 15 16 18 20 21 23 24 25 26 27 25 23 24
10 7 6 12 18 15 14 17 16 24 21 10 15 17 24 25 11 9 12 12 9 9 7 9 13 15 13 11 13 14 15 19 22 22 23 22 22 22 23 17 17 18 20
4 5 8 13 15 13 16 19 23 18 11 18 22 25 14 10 23 21 8 12 7 4 9 10 13 11 9 10 12 18 21 22 17 20 24 24 22 20 23 20 19 19 17
6 7 10 17 15 15 14 16 21 23 26 26 22 20 21 16 11 11 16 12 8 4 9 12 10 6 11 12 18 22 21 18 20 22 22 26 22 25 25 25 24 22 17
6 9 17 17 20 13 15 19 19 21 24 17 23 19 20 17 21 16 16 18 4 9 12 6 4 8 12 16 19 19 20 19 20 20 21 25 28 26 26 25 24 26 26
14 14 16 18 19 22 19 17 18 20 18 18 17 18 17 17 13 12 5 4 9 11 7 8 9 13 17 17 20 20 16 18 18 19 23 24 26 25 23 21 16 17 17
15 17 21 21 21 21 22 21 20 18 18 15 15 17 19 21 13 7 5 3 7 8 3 7 12 16 17 18 17 17 15 17 19 19 21 21 22 22 21 20 17 17 21
16 19 20 18 21 27 28 25 15 15 14 18 20 20 17 20 16 13 8 8 10 3 5 11 14 16 15 16 15 14 18 20 19 20 21 23 23 26 23 17 19 20 18
16 19 16 20 24 26 23 19 14 14 17 18 17 19 20 19 14 8 8 7 3 5 9 13 15 13 15 19 16 19 20 20 22 21 24 26 26 21 15 16 19 17 15
15 15 20 22 21 19 20 12 12 15 16 17 16 19 19 19 13 10 8 6 8 9 10 13 14 14 17 19 20 22 20 20 21 21 23 21 15 16 16 17 18 14 16
17 20 20 19 20 17 15 13 15 16 13 12 15 16 16 16 11 8 9 11 11 12 13 14 13 14 16 18 23 22 23 24 22 24 20 16 16 16 18 20 18 18 17
19 21 21 21 17 15 17 20 19 15 10 12 13 13 16 13 9 8 9 10 12 14 13 13 13 13 14 15 19 20 21 22 18 17 16 18 19 18 17 19 19 20 18
21 21 21 22 17 16 20 20 17 14 12 10 10 11 13 12 10 9 9 10 15 13 13 13 12 9 11 13 18 17 19 18 15 16 15 16 17 16 16 16 18 19 17

GFSMW_925_spd_030.txt.gz
Wind_Speed
13 26 34 35 36 32 28 24 22 15 13 12 9 11 17 19 17 15 13 11 10 10 11 13 14 16 17 16 16 18 22 22 23 25 25 25 23 18 15 16 19 17 13
12 19 27 28 28 26 25 23 20 18 17 16 15 14 12 12 14 13 11 10 10 11 12 15 18 19 19 19 18 20 18 12 14 10 11 5 20 10 26 27 22 16 14
11 9 19 23 22 21 18 16 16 15 13 12 10 10 10 10 11 12 9 9 9 11 15 19 22 22 20 19 19 17 14 10 7 9 6 3 3 14 9 23 20 23 26
9 11 17 18 17 14 13 12 9 10 8 8 9 8 5 3 2 3 5 7 10 14 18 22 26 22 21 19 14 9 9 8 5 4 7 5 4 3 6 6 24 17 26
11 9 16 17 14 11 11 11 11 7 5 4 4 3 4 4 5 2 4 9 13 17 19 19 17 16 14 12 9 7 4 6 6 8 5 7 10 4 2 5 5 22 23
7 11 14 14 12 9 8 7 8 10 6 5 5 6 6 6 3 6 11 15 16 17 17 16 15 16 17 11 7 6 7 9 14 12 12 8 5 5 5 4 9 10 16
7 7 10 11 8 6 5 6 6 9 9 6 5 4 5 3 4 8 9 9 10 11 11 11 12 13 13 10 9 11 17 13 12 19 19 15 13 14 16 13 15 9 11
6 5 3 5 8 7 6 5 8 9 7 7 8 7 7 7 7 3 2 2 5 7 11 13 11 11 9 10 10 12 12 18 15 16 15 16 15 15 17 13 11 5 5
6 8 15 14 11 8 5 4 5 7 7 8 6 5 3 2 3 4 2 2 7 12 9 8 11 12 10 11 13 14 15 13 13 13 14 15 15 15 20 17 14 5 3
7 7 10 10 11 10 8 5 6 9 8 5 3 5 6 5 5 6 9 10 8 10 8 9 10 11 11 12 12 13 13 13 15 16 12 10 11 13 16 18 19 17 13
6 7 14 16 14 10 8 2 7 4 2 3 5 8 10 11 11 14 17 16 11 10 7 9 8 7 8 9 12 13 14 13 10 4 8 13 17 19 21 22 23 22 17
8 9 12 12 12 11 11 4 1 2 3 7 11 14 13 13 17 21 21 19 14 11 8 7 7 6 7 9 10 10 8 4 7 10 15 19 21 24 24 23 23 22 22
6 7 13 13 12 11 9 4 4 4 11 19 18 12 15 20 23 24 22 15 12 10 10 7 8 6 6 8 8 4 6 8 9 13 16 19 20 22 22 22 24 24 23
4 2 5 10 11 11 7 9 10 13 18 18 10 18 25 22 24 26 16 11 10 9 19 9 7 8 8 10 6 8 9 11 16 19 18 17 18 19 21 22 18 16 17
5 5 5 8 12 7 8 8 9 14 15 15 13 13 15 19 17 14 13 18 19 14 14 10 8 9 9 9 7 9 14 19 19 17 16 17 16 17 17 16 17 16 17
5 5 7 10 14 10 10 11 14 15 15 12 10 11 14 15 11 14 14 13 14 14 13 11 8 9 5 8 9 16 20 19 18 18 20 18 18 17 19 19 19 18 19
4 6 8 13 15 14 13 11 11 14 13 8 10 13 15 15 18 19 18 18 13 10 10 11 5 2 6 9 14 16 17 17 17 19 20 21 17 23 24 23 21 21 20
5 8 11 13 14 13 13 13 14 12 7 9 9 12 15 19 23 22 23 16 5 2 6 2 2 5 10 12 13 15 13 14 16 17 19 21 24 23 21 23 21 22 19
7 10 10 8 8 12 15 15 14 6 4 7 12 15 15 17 18 17 15 9 5 3 6 2 5 10 11 11 12 14 14 16 19 22 21 22 22 21 20 20 23 19 21
8 7 5 7 13 19 22 18 11 7 8 11 12 13 14 16 16 14 12 4 7 3 4 5 8 9 10 11 12 14 19 21 20 18 20 20 19 21 22 23 22 16 20
5 8 8 14 18 17 13 10 6 7 9 13 15 13 13 14 12 10 7 4 1 5 5 7 7 8 11 13 14 17 18 19 19 20 20 22 21 21 16 17 16 20 16
10 12 15 17 14 14 10 5 7 10 15 14 12 12 14 13 9 7 6 5 5 3 5 7 7 8 11 15 17 17 16 17 18 21 22 22 16 18 15 16 16 12 11
11 13 14 13 16 10 6 8 12 16 13 9 9 10 10 10 8 4 7 3 2 5 6 7 8 9 11 16 18 19 18 20 19 16 16 16 15 14 17 16 14 15 14
10 11 14 15 16 7 7 11 14 14 10 9 10 9 10 9 5 4 4 3 6 8 7 8 10 10 11 15 18 19 20 22 14 15 13 15 15 15 16 17 18 19 16
11 14 14 16 18 12 14 18 15 16 13 11 8 8 7 7 6 4 3 6 8 9 10 10 10 11 12 13 16 15 17 18 15 14 13 16 18 16 17 18 19 20 19
14 15 18 18 16 21 23 22 11 16 13 12 9 7 5 5 6 5 5 8 8 9 8 10 9 9 9 11 15 13 13 14 14 14 15 15 16 16 15 17 17 19 20

GFSMW_925_spd_033.txt.gz
Wind_Speed
8 20 29 33 32 22 15 16 14 14 10 12 11 15 20 17 14 12 9 9 10 13 15 14 14 16 19 20 20 22 23 21 21 15 23 20 4 23 14 32 17 19 18
9 16 27 28 26 24 21 19 19 16 15 16 15 12 11 10 7 6 7 9 9 7 9 11 14 19 22 21 18 16 15 15 14 10 11 4 13 5 31 15 25 21 23
11 8 17 23 22 21 20 18 16 14 11 9 8 6 4 3 1 1 3 4 6 8 12 16 19 18 16 15 14 13 12 12 13 10 5 4 3 6 6 22 9 22 23
6 9 14 18 20 18 17 16 15 12 10 7 3 2 4 5 3 5 3 4 8 12 15 16 14 14 14 14 13 10 9 9 10 12 7 9 8 3 5 4 19 16 24
7 7 14 19 18 16 14 14 13 11 10 7 6 6 6 5 5 2 2 7 11 13 12 10 10 10 12 11 7 5 4 4 6 8 9 11 11 6 4 7 7 20 21
6 7 13 13 14 13 12 10 10 8 6 5 5 6 7 8 5 0 6 11 12 11 12 13 12 12 10 9 8 4 4 11 9 8 13 12 8 7 7 6 14 10 18
6 6 9 7 8 7 6 7 6 8 6 5 4 4 5 4 0 5 9 11 12 11 11 10 13 11 10 8 7 8 9 9 15 14 14 14 16 18 16 13 15 6 12
5 5 5 6 6 8 6 5 8 6 6 7 6 6 4 2 6 8 11 11 11 10 11 13 10 9 8 8 8 10 11 12 12 12 11 13 12 11 12 9 8 6 3
4 7 10 9 7 5 3 3 4 6 8 7 5 1 6 9 11 13 13 16 15 15 13 10 9 8 9 10 10 11 12 11 11 12 13 13 11 8 9 11 11 5 5
6 7 10 9 7 4 2 2 4 4 3 2 6 9 11 14 15 15 17 18 17 16 14 11 10 9 9 9 12 13 12 13 13 13 12 7 8 11 13 16 16 14 13
7 6 9 7 5 3 3 2 5 3 4 6 9 16 18 15 14 18 19 23 22 16 11 10 9 11 12 9 10 11 11 11 10 5 8 11 14 16 20 21 20 19 16
5 6 6 6 5 6 5 4 4 6 8 10 14 16 13 13 17 21 23 24 21 15 13 14 11 14 13 12 10 11 10 6 7 11 13 16 19 21 21 21 22 21 20
5 3 3 4 4 5 3 2 6 7 9 11 9 9 13 14 14 17 21 21 18 17 18 11 17 18 14 11 11 8 7 8 10 13 17 19 17 20 20 21 22 21 18
4 1 2 3 7 5 6 7 7 7 9 11 11 10 10 14 16 17 18 19 18 18 15 17 13 17 16 13 9 7 8 10 15 18 18 17 17 18 19 20 19 14 18
2 2 2 5 10 8 5 6 8 9 11 12 8 10 12 16 17 17 19 20 23 21 19 14 14 16 10 11 6 7 13 17 19 18 18 18 18 18 18 18 21 23 18
3 2 5 6 7 9 7 7 7 10 11 7 8 9 13 15 14 18 22 24 23 20 15 11 6 6 10 5 9 14 17 19 18 20 20 20 20 19 18 22 22 21 22
2 4 3 8 6 6 6 7 10 12 11 6 7 9 11 16 17 21 19 19 18 14 6 2 4 3 3 7 11 13 15 15 17 19 20 20 16 22 23 23 21 22 21
1 5 5 4 4 4 7 10 11 12 6 6 8 11 15 17 19 20 18 17 6 3 3 0 1 2 7 9 11 13 15 16 19 22 21 20 22 21 21 23 24 20 23
10 6 4 3 3 8 9 8 7 4 4 7 10 14 16 17 17 16 15 14 7 4 3 3 2 7 7 8 9 13 16 19 20 18 20 19 19 19 20 24 25 26 24
8 3 3 4 7 7 5 7 8 6 7 9 14 14 14 15 16 13 11 5 6 2 4 1 3 5 7 9 11 13 16 18 17 21 21 18 17 21 18 20 20 19 21
4 6 4 6 7 7 9 8 6 8 10 15 14 12 13 15 13 11 8 6 2 3 2 3 3 5 7 10 11 13 15 17 18 19 19 20 18 20 17 16 17 17 14
5 4 6 7 9 11 8 7 9 11 16 16 12 11 12 12 11 5 6 2 4 1 2 5 4 6 7 10 12 13 14 16 18 16 18 17 18 16 15 16 17 14 14
4 4 6 8 10 9 7 8 12 16 15 13 12 11 11 10 6 5 1 2 1 3 4 4 5 7 7 9 13 15 14 16 14 15 14 15 15 14 15 16 16 16 17
2 5 7 10 13 13 10 12 17 16 11 12 13 12 10 11 7 7 6 2 1 3 4 5 7 8 8 10 14 15 14 17 15 15 12 13 14 13 14 16 17 17 18
5 7 8 12 11 11 16 17 18 12 13 14 14 10 7 7 5 5 4 3 4 5 6 8 9 9 9 10 14 13 14 15 16 13 12 15 18 18 17 19 17 18 20
6 8 12 12 12 18 18 17 14 13 16 16 14 9 8 8 6 4 6 4 5 6 6 7 8 8 8 9 11 9 10 11 13 10 11 14 16 17 14 16 17 18 19

GFSMW_925_spd_036.txt.gz
Wind_Speed
8 15 19 23 25 24 21 14 7 15 23 19 17 15 16 13 10 8 6 5 5 6 8 9 12 17 20 20 17 15 15 13 16 6 17 11 2 19 10 23 18 23 19
6 13 20 23 25 23 23 22 21 20 18 17 13 8 8 7 6 4 3 4 5 8 12 15 18 19 18 17 15 14 13 10 14 9 7 3 10 3 27 9 17 12 20
9 6 14 19 22 24 24 23 20 16 11 8 7 6 5 3 3 2 1 4 6 10 13 15 15 14 15 16 14 13 11 9 8 11 3 3 2 7 4 20 11 22 17
4 6 11 15 19 17 16 15 14 12 10 8 5 4 4 4 4 3 2 4 8 13 15 14 14 16 17 15 13 11 9 7 6 7 5 7 8 2 3 1 18 21 26
6 7 11 13 10 11 12 11 10 8 5 3 3 4 4 2 4 3 2 6 11 13 14 11 11 11 11 9 9 9 7 5 8 9 7 9 10 10 5 7 9 16 22
3 4 12 13 7 6 9 9 8 6 5 4 3 4 3 3 3 1 5 10 13 14 14 13 12 12 14 10 10 8 6 10 9 10 12 12 6 10 8 6 10 9 11
6 5 8 12 14 14 8 8 5 5 3 2 2 2 3 2 3 6 10 14 14 16 16 14 14 15 11 9 8 9 11 12 12 14 14 12 11 12 11 12 5 3 12
4 2 4 7 7 9 9 6 6 4 3 2 2 1 3 5 8 11 11 14 16 17 18 19 18 14 12 10 10 10 12 13 14 15 15 14 14 12 10 7 4 3 5
4 5 7 9 9 9 6 5 4 3 4 3 3 5 7 9 12 13 14 19 20 22 22 21 19 16 15 14 12 13 14 13 15 15 15 16 14 9 9 9 9 4 3
7 7 11 10 9 8 4 2 1 5 5 6 6 7 12 14 14 14 17 20 19 21 23 20 17 15 12 15 19 17 15 14 14 14 13 11 10 12 14 16 17 14 14
7 5 8 8 7 6 4 1 4 3 4 7 9 12 16 16 14 16 20 22 23 24 22 18 14 9 16 16 12 19 15 14 13 9 10 11 13 17 20 23 22 20 18
6 5 6 6 6 4 3 4 1 6 6 8 13 12 10 11 11 13 13 16 20 21 21 18 15 16 14 16 15 14 16 12 10 10 13 16 20 22 22 21 20 20 21
5 3 5 5 4 4 4 3 3 4 6 7 9 10 8 9 11 14 17 18 20 23 20 14 13 16 15 12 15 13 11 9 11 13 18 21 21 21 21 21 22 21 19
5 2 2 4 6 4 4 6 8 7 7 8 8 6 8 10 14 16 18 21 23 25 19 19 20 16 11 12 10 14 10 12 17 19 20 20 20 21 23 23 23 19 18
4 3 2 3 5 5 7 6 5 6 9 10 7 7 8 12 16 19 22 24 24 22 18 16 13 10 5 5 10 7 13 18 19 20 20 21 20 22 22 22 19 18 19
5 4 2 5 8 7 4 3 6 8 10 10 8 7 10 14 17 20 23 22 20 18 13 9 2 3 5 3 5 12 15 18 18 17 19 23 21 20 19 21 24 23 23
5 4 7 9 6 3 1 5 9 10 12 8 6 10 12 16 19 19 20 18 18 13 6 1 2 1 1 5 9 12 15 17 20 22 24 20 17 20 22 21 21 23 22
6 7 9 6 5 2 5 8 10 11 8 6 9 11 15 18 19 19 18 17 14 10 7 2 2 2 4 7 10 13 16 19 21 21 18 19 20 21 19 23 26 26 25
7 10 7 6 3 5 6 6 7 7 7 8 9 14 15 18 19 20 17 14 8 6 3 3 1 3 5 7 9 12 16 18 19 18 19 17 17 18 22 22 20 20 22
10 7 6 3 3 3 4 8 8 7 8 10 14 16 15 17 20 19 13 11 13 9 5 3 3 5 6 7 9 10 14 18 19 22 20 17 16 20 21 20 18 18 16
11 9 5 1 1 5 8 7 6 8 10 14 18 16 14 17 17 16 9 9 8 3 3 4 5 5 6 8 9 10 13 16 19 19 18 19 18 19 19 18 18 19 18
11 6 2 1 3 7 6 6 7 10 15 16 15 14 16 18 15 11 12 6 1 3 5 7 6 7 7 7 9 11 11 13 16 18 18 18 18 17 16 16 17 15 15
7 4 0 3 5 7 7 8 11 15 17 14 12 14 16 15 13 10 7 6 6 6 6 7 7 8 8 7 8 12 11 13 14 15 14 14 15 15 14 15 15 15 17
4 0 3 4 8 7 7 11 16 17 14 12 16 19 15 12 11 9 9 9 6 7 9 8 9 10 9 7 8 10 11 14 14 15 12 12 13 14 14 17 16 16 17
1 3 4 7 9 9 14 15 15 14 11 12 17 18 15 11 9 7 7 8 6 9 11 12 11 12 10 7 8 9 11 12 14 14 11 13 16 18 18 19 18 19 20
3 5 7 8 10 14 15 15 13 13 14 16 17 17 14 12 12 10 8 9 9 9 11 11 11 11 10 8 7 7 7 8 12 12 11 11 13 15 15 18 19 19 21

GFSMW_925_spd_039.txt.gz
Wind_Speed
5 7 11 14 19 20 21 21 17 11 9 16 22 19 14 12 9 7 5 4 5 7 10 12 13 15 14 14 13 10 10 10 11 9 13 11 7 5 5 9 10 12 12
9 11 13 15 16 19 20 18 15 17 19 21 18 12 14 8 7 5 4 4 6 9 12 14 14 13 10 11 11 11 11 10 9 9 12 5 7 4 11 10 11 10 15
13 10 12 13 16 18 20 22 22 21 18 14 12 10 8 6 4 3 1 4 7 11 13 13 11 12 13 11 11 9 8 9 8 6 6 5 4 16 10 17 10 20 17
8 11 15 15 17 20 20 20 19 18 17 15 7 5 3 3 3 2 2 4 9 11 12 12 11 12 13 10 9 7 7 6 9 9 7 8 11 6 8 10 15 19 20
9 10 12 13 12 18 19 17 15 13 10 7 3 2 1 1 2 2 2 5 10 11 12 12 13 13 13 11 8 6 5 5 7 8 8 9 12 13 10 10 16 18 16
8 9 7 8 6 10 11 11 13 9 6 3 2 1 2 3 2 2 5 6 10 12 13 14 16 15 13 11 9 8 7 7 7 8 9 10 9 11 11 8 15 18 19
11 10 12 13 11 9 13 10 9 8 6 4 3 5 5 3 3 6 9 9 11 12 14 16 16 16 15 12 10 8 10 11 10 10 10 9 11 12 10 13 16 13 22
10 9 9 9 7 7 6 7 7 6 5 4 6 4 3 4 7 9 11 12 14 15 16 17 19 19 16 13 11 10 12 13 14 14 13 11 11 11 14 14 13 11 19
10 10 10 8 6 6 6 7 7 5 5 5 2 1 4 8 12 13 12 13 15 18 21 23 22 20 18 15 12 12 12 12 16 16 12 12 11 9 8 9 9 12 13
7 6 7 7 7 7 5 5 5 6 5 3 2 4 7 9 9 9 12 16 17 18 20 22 23 21 17 11 11 13 12 14 13 10 10 9 8 9 10 12 13 16 20
8 7 9 8 7 6 5 6 7 6 2 1 4 6 6 8 9 10 12 14 17 18 21 23 21 15 10 11 10 8 10 11 12 9 8 10 10 13 17 18 19 20 20
10 10 9 8 7 6 8 9 5 2 2 3 6 6 8 6 7 10 12 15 17 19 21 21 16 11 11 12 13 10 9 11 9 7 10 13 16 18 19 19 19 19 20
10 8 9 8 8 9 9 7 4 5 6 4 7 8 5 5 7 10 13 15 18 20 19 15 12 12 14 12 6 8 8 6 6 9 14 18 19 20 20 21 22 21 21
10 8 8 7 7 9 8 8 6 4 3 7 9 6 5 6 9 12 15 19 20 18 17 12 10 11 11 6 5 5 4 6 10 14 16 18 19 20 22 23 23 22 21
10 8 8 8 8 10 13 9 4 2 6 8 9 7 6 8 11 14 18 19 18 16 16 11 12 10 3 1 3 3 6 10 13 15 16 16 17 21 20 21 21 21 22
10 9 9 10 11 11 9 6 1 4 7 9 9 6 7 9 13 17 17 15 14 14 12 9 3 1 2 3 4 7 8 11 13 16 18 17 17 15 17 17 17 18 20
10 10 9 12 11 9 6 1 3 7 8 9 5 5 8 12 14 14 14 14 13 10 11 7 4 1 1 4 7 11 9 11 14 15 17 16 15 16 15 16 18 20 20
10 8 12 11 9 6 1 3 5 6 6 5 5 7 11 13 11 13 14 12 11 10 8 6 1 1 1 6 10 12 10 12 14 15 14 16 16 15 16 21 19 20 19
11 12 13 12 10 3 3 3 4 6 5 5 7 10 12 9 10 13 13 11 11 10 10 4 3 3 3 8 9 10 10 13 15 14 15 15 15 15 19 20 18 18 18
13 14 10 6 4 1 2 6 6 5 5 7 10 12 11 9 11 13 13 11 11 11 7 5 4 6 7 7 8 9 11 14 15 16 15 13 15 17 18 18 17 18 18
14 14 12 8 3 1 5 7 5 5 7 10 13 13 10 9 14 15 12 10 10 7 6 5 7 8 8 7 8 9 11 13 15 16 16 15 16 18 17 16 14 16 17
13 8 7 5 0 3 5 5 6 8 11 13 12 9 9 13 17 15 11 8 6 5 6 8 9 8 9 10 9 9 10 11 14 15 15 15 16 16 14 12 14 15 13
14 8 5 2 1 4 6 5 7 12 15 14 10 9 12 16 14 11 11 9 7 7 7 8 9 9 8 8 10 10 11 10 12 12 13 13 14 14 11 12 12 11 12
5 6 3 2 3 5 5 8 12 13 12 10 9 11 12 13 11 9 9 9 10 9 9 9 10 10 9 9 8 8 9 11 10 13 11 10 11 11 10 11 11 11 11
6 5 4 3 5 5 9 11 12 11 9 9 11 13 12 12 10 10 9 8 9 9 10 12 11 11 12 10 9 8 9 10 10 13 8 8 9 10 10 11 11 11 12
6 4 4 4 5 8 11 12 12 11 10 12 13 13 12 11 10 11 13 13 13 12 12 14 14 14 15 14 11 9 9 10 11 8 8 8 8 9 10 11 12 11 13

GFSMW_925_spd_042.txt.gz
Wind_Speed
6 7 8 10 15 17 18 19 19 18 16 9 8 9 10 8 6 5 6 5 5 6 7 7 8 8 8 9 11 13 15 16 15 18 19 19 16 11 12 15 13 15 16
9 10 10 11 14 17 18 17 14 11 10 12 11 9 10 6 5 5 4 4 5 5 5 5 6 8 11 12 12 13 15 16 14 15 20 9 16 20 7 17 17 16 16
11 11 12 13 15 17 18 17 15 17 15 14 10 8 7 7 6 4 3 3 3 2 5 8 9 10 11 12 13 13 14 16 17 13 13 10 10 19 20 15 18 17 20
12 13 16 17 18 18 19 20 19 17 14 13 10 9 4 3 1 2 3 2 2 5 6 7 8 9 12 13 14 15 14 15 18 17 16 15 18 9 10 19 21 22 19
13 15 18 19 18 16 16 16 15 12 11 9 5 4 3 3 3 3 3 2 4 5 7 8 9 12 15 16 16 16 16 16 15 17 16 15 17 17 15 10 18 21 20
14 17 18 17 16 13 12 12 12 12 8 6 6 5 5 4 3 3 5 6 8 9 10 12 13 15 17 18 18 17 16 16 16 15 14 13 15 16 14 12 16 20 23
15 15 17 16 15 13 11 10 10 10 9 8 7 7 6 3 2 5 7 9 12 13 15 14 15 17 19 19 18 18 18 17 15 17 16 12 13 16 16 16 19 16 25
15 15 16 15 13 12 11 9 9 9 8 7 8 6 2 1 4 5 8 10 12 12 12 14 17 19 19 19 19 18 17 16 18 17 14 13 15 15 15 16 17 13 21
16 15 15 13 13 12 9 10 9 9 8 8 5 4 1 3 6 7 7 8 9 11 12 16 19 20 20 19 19 19 17 18 15 13 12 13 14 14 15 17 19 19 13
15 13 15 13 11 11 10 10 8 9 8 6 4 1 3 4 3 3 4 6 10 14 17 18 20 20 19 18 18 16 18 16 14 13 13 14 13 14 17 19 21 21 24
14 12 12 12 12 11 11 11 11 10 7 4 2 3 3 1 2 3 6 9 13 16 17 19 21 19 17 15 14 16 16 14 14 13 12 14 15 17 21 23 24 25 26
13 12 14 15 15 13 13 13 12 9 6 5 6 4 2 3 4 5 8 11 14 16 18 19 18 16 14 14 13 14 12 11 12 12 13 15 18 22 23 24 23 25 27
14 12 15 15 15 14 14 13 10 9 8 8 4 3 4 4 5 7 10 13 16 18 18 17 17 15 13 14 12 10 10 9 10 11 14 19 21 23 23 23 25 25 26
15 14 14 15 15 15 15 13 9 10 7 3 4 5 5 5 6 8 12 15 16 17 16 17 16 11 12 11 9 7 8 9 11 14 17 19 19 19 20 23 24 24 23
16 14 13 14 14 14 14 9 10 6 3 4 6 7 6 6 7 11 14 16 16 15 15 14 11 10 8 4 5 7 8 11 14 16 16 16 16 18 17 17 20 20 21
16 14 13 13 13 14 12 10 7 3 3 6 8 7 7 7 10 13 15 15 15 14 14 12 9 5 4 6 5 6 10 13 14 15 16 16 15 13 17 15 16 18 19
15 14 13 14 13 13 10 7 4 3 4 7 6 5 7 9 12 14 14 14 14 13 12 10 7 5 3 5 6 10 11 12 12 14 15 16 14 16 16 17 19 22 20
14 12 14 14 15 12 8 4 4 3 4 6 6 7 9 12 13 13 14 13 13 11 11 9 8 6 5 6 8 11 9 11 12 13 14 15 16 15 15 19 21 21 19
15 14 15 16 13 10 8 6 5 5 6 7 8 9 11 13 12 12 13 13 11 12 12 10 9 8 7 9 9 9 10 11 14 13 14 14 15 14 17 20 20 20 19
14 16 16 15 12 6 4 4 7 7 7 8 8 10 13 12 12 12 13 13 12 11 9 9 8 8 8 10 9 8 9 12 14 14 14 12 11 16 18 18 18 18 18
17 19 17 13 10 7 5 6 6 7 7 7 9 12 12 11 12 13 14 14 13 12 9 8 9 10 11 10 11 9 7 11 13 14 15 14 14 16 17 16 14 16 20
16 12 12 9 7 5 3 6 7 6 7 9 13 13 12 12 14 16 15 14 12 11 10 10 11 12 10 11 10 10 9 10 11 14 14 15 16 17 17 13 15 15 14
15 11 3 4 4 2 3 6 6 7 9 11 12 11 10 12 13 14 14 14 12 11 11 11 12 12 9 9 10 11 10 10 10 12 15 17 15 15 13 11 12 12 12
10 3 7 5 3 3 5 6 7 8 10 11 11 11 12 13 14 13 12 13 12 12 11 11 12 12 10 10 8 8 8 8 10 10 14 13 13 12 11 10 9 10 11
6 4 4 4 5 5 6 8 8 9 11 12 11 13 12 13 14 13 13 13 14 13 10 12 13 11 11 9 8 11 9 9 10 13 11 11 11 10 9 9 9 9 11
2 2 5 6 7 7 9 9 9 10 11 12 13 13 13 14 15 15 15 14 17 18 17 15 15 14 16 16 15 13 10 10 10 10 11 10 10 10 9 9 9 8 9

GFSMW_925_spd_045.txt.gz
Wind_Speed
12 10 11 11 12 16 20 18 20 17 15 7 6 11 12 12 9 6 6 5 4 4 3 3 5 6 10 11 12 14 17 19 20 22 22 21 25 21 16 19 16 15 18
11 12 12 12 13 16 18 19 16 15 11 9 11 13 13 11 9 7 6 5 4 2 1 4 6 8 11 12 14 16 18 20 20 21 23 12 19 22 17 18 20 19 21
14 12 14 13 14 17 20 17 17 16 15 15 13 11 9 9 9 7 5 4 2 1 3 5 7 9 12 14 16 17 19 21 23 20 21 12 12 21 23 26 26 24 23
11 12 16 19 20 20 20 19 18 19 17 15 13 13 11 8 3 2 4 5 2 3 5 8 10 11 13 16 17 19 20 22 23 23 20 21 23 11 12 23 23 23 23
14 14 17 20 21 20 20 19 19 17 15 12 11 11 6 2 2 2 3 5 7 6 8 10 10 13 16 18 19 21 20 19 19 21 20 19 19 19 18 12 19 23 23
15 17 20 21 21 18 17 16 16 14 14 11 8 7 5 3 4 4 6 9 8 11 10 11 13 16 18 19 21 22 22 19 21 19 18 17 17 16 17 12 17 18 24
15 16 17 21 21 19 16 15 14 13 12 10 9 7 6 4 3 5 8 9 11 12 13 13 17 18 20 21 22 22 21 21 21 17 17 18 16 14 16 15 17 15 24
16 17 19 19 20 18 16 15 15 13 11 11 9 7 6 4 4 5 8 10 12 12 14 15 16 19 20 21 22 22 21 19 17 17 18 16 14 13 14 15 16 12 21
17 17 20 18 18 17 17 14 15 14 13 11 10 8 5 3 6 6 7 9 9 11 13 15 18 19 20 21 21 23 20 18 18 14 17 15 13 14 15 15 16 19 12
18 17 18 18 17 17 15 14 15 15 13 12 9 7 4 5 7 6 7 7 9 11 14 16 17 19 20 20 20 21 18 18 17 15 17 13 14 14 14 17 22 24 24
17 15 17 18 15 14 14 15 15 14 13 9 8 6 6 6 7 7 7 8 10 13 14 16 18 20 20 20 16 18 21 18 18 15 13 13 13 14 16 23 25 24 25
17 15 17 15 16 16 17 16 15 15 10 8 5 8 7 7 8 8 8 8 12 14 16 18 19 19 20 17 12 16 19 18 12 10 12 12 15 19 22 24 25 25 27
16 14 14 15 17 18 17 16 15 12 9 5 8 9 7 8 8 8 8 11 13 15 17 17 18 19 18 14 14 13 14 11 11 11 11 14 19 21 22 23 24 25 27
14 13 13 17 18 17 16 16 12 10 9 8 8 7 8 8 8 8 10 12 14 16 17 16 16 17 15 15 13 11 9 9 10 11 15 18 18 18 17 21 22 22 24
14 15 15 15 17 16 17 14 11 11 8 9 7 7 7 8 9 9 11 13 15 15 16 16 14 15 12 7 3 8 8 10 13 15 16 15 15 17 15 14 20 20 21
15 15 15 16 17 18 16 14 12 9 7 6 6 8 8 9 9 11 13 15 15 15 16 15 14 12 10 7 9 5 9 14 15 14 15 15 16 12 17 16 11 17 21
13 14 13 15 15 15 16 14 10 7 5 6 8 8 8 9 11 13 14 15 15 16 14 13 12 11 7 8 7 7 10 13 12 13 14 15 15 16 15 16 20 20 22
11 12 13 13 14 15 15 10 8 6 6 7 8 8 9 11 12 14 15 15 16 14 14 14 12 10 9 10 9 9 11 11 11 12 14 14 14 13 13 18 20 21 21
9 11 12 13 14 14 11 8 7 5 5 7 8 10 10 12 14 15 15 15 16 14 14 13 13 11 10 11 10 10 10 10 11 13 13 12 14 13 18 16 19 20 19
9 11 12 13 13 10 6 2 4 7 7 8 8 10 12 13 15 15 15 16 15 14 13 12 11 12 9 9 11 10 9 10 12 12 12 11 8 12 14 14 16 19 19
9 11 12 12 11 7 4 2 7 7 7 8 9 12 14 16 15 15 15 17 15 12 14 11 11 12 9 11 11 11 8 9 11 12 12 10 14 18 16 14 13 15 20
12 13 12 10 6 3 0 5 6 8 8 9 12 14 15 15 14 15 17 16 13 14 13 12 13 12 13 13 13 15 12 10 10 13 12 13 17 17 15 13 13 19 14
12 10 9 8 4 1 3 4 6 7 9 12 13 14 14 14 15 16 16 14 13 14 15 13 13 12 12 12 13 15 12 10 10 12 12 16 15 14 13 8 14 12 12
11 10 7 1 2 2 4 6 7 8 11 13 13 14 14 14 15 16 14 11 14 15 14 13 14 13 12 11 11 11 10 9 10 12 9 15 14 12 13 12 10 10 10
9 4 4 8 7 7 8 8 9 10 12 13 14 14 15 15 15 16 16 15 16 17 16 15 13 12 13 13 12 9 8 9 9 11 12 12 10 11 11 10 10 10 10
7 2 6 9 9 9 9 11 11 11 12 13 14 14 14 15 16 17 17 19 20 20 21 23 22 20 16 16 17 17 16 15 12 11 13 13 9 10 10 10 10 10 10